Regional Weather Roundup
Issued by NWS

Home | Current Version | Previous Version | Text Only | Print | Product List | Glossary On
Versions: 1 2 3 4 5 6 7 8 9 10 11 12 13 14 15 16 17 18 19 20 21 22 23 24 25 26 27 28 29 30 31 32 33 34 35 36 37 38 39 40 41 42 43 44 45 46 47 48 49 50
000
ASUS43 KLOT 012112
RWRIL

ILLINOIS REGIONAL WEATHER ROUNDUP
NATIONAL WEATHER SERVICE CHICAGO/ROMEOVILLE IL
400 PM CDT WED JUL 01 2015

NOTE: "FAIR" INDICATES FEW OR NO CLOUDS BELOW 12,000 FEET WITH NO
SIGNIFICANT WEATHER AND/OR OBSTRUCTIONS TO VISIBILITY.

* THESE STATIONS ARE NOT UNDER NWS QUALITY CONTROL. THEY ALSO MAY NOT
  REPORT WEATHER SUCH AS PRECIPITATION OR FOG.

ILZ001-002-007-009-015-016-024-012200-
NORTHWEST ILLINOIS

CITY           SKY/WX    TMP DP  RH WIND       PRES   REMARKS
MOLINE         CLOUDY    72  60  66 E8        29.93R
STERLING*      MOSUNNY   73  59  60 NE8       29.94R
SAVANNA*       PTSUNNY   72  54  53 N7        29.95R
$$

ILZ003-004-008-010-011-017-018-012200-
NORTH CENTRAL ILLINOIS

CITY           SKY/WX    TMP DP  RH WIND       PRES   REMARKS
ROCKFORD       CLOUDY    73  49  42 NE9       29.96S
FREEPORT*      PTSUNNY   69  53  57 NE3       29.98R
ROCHELLE*      MOSUNNY   71  56  60 NE8       29.95S
DE KALB*       MOSUNNY   70  53  54 NE8       29.95F
PERU*          MOSUNNY   73  59  62 E8        29.93F
$$

ILZ005-006-012>014-019>023-012200-
NORTHEAST ILLINOIS

CITY           SKY/WX    TMP DP  RH WIND       PRES   REMARKS
CHICAGO-OHARE  CLOUDY    63  51  65 NE10      29.96F
CHICAGO-MIDWAY PTSUNNY   65  52  62 E13       29.96F
AURORA         MOSUNNY   73  55  53 N5        29.94F
LANSING*       MOSUNNY   63  50  63 NE9G16    29.97S
JOLIET*        MOSUNNY   74  60  60 E13       29.94F
WAUKEGAN       PTSUNNY   59  51  75 NE13      29.97F
DUPAGE AIRPORT MOSUNNY   71  55  56 E7        29.93F
KANKAKEE*      CLOUDY    69  60  71 NE8       29.94F
WHEELING       PTSUNNY   60  49  66 NE10      29.98S
MORRIS*        PTSUNNY   71  57  61 E5        29.92F
ROMEOVILLE*    MOSUNNY   69  56  64 E10       29.95S
NORTHERLY ISL    N/A     59  50  72 NE10        N/A
$$

LMZ740>746-012200-
SOUTHERN LAKE MICHIGAN

STATION/POSITION SKY/WX   TEMP    WIND        PRES    VSBY  WAVE
                          AIR SEA DIR/SP/G                  HT/PER
                          (F)     (DEG/KT/KT) (MB)    (MI)  (FT/S)
HARRISON CRIB              56      60/ 10/ 12   N/A
BURNHAM HARBOR             59      60/  9/ 11   N/A
CALUMET HARBOR             60      30/  8/ 12   N/A
BURNS HARBOR               60      40/ 13/ 15 1015.6S
MICHIGAN CITY              57     360/ 11/ 13   N/A
MICHIGAN CITY 6N           58 65   40/ 10/ 14   N/A           3/ 5
ST. JOSEPH                 58 63                N/A           3/ 5
$$

ILZ025>027-034>036-040-047-049-050-058-095>099-012200-
WEST-CENTRAL ILLINOIS

CITY           SKY/WX    TMP DP  RH WIND       PRES   REMARKS
QUINCY         PTSUNNY   82  68  62 VRB3      29.86F HX  85
GALESBURG*     CLOUDY    74  65  71 NE9       29.91F
MACOMB*        CLOUDY    76  67  76 NE12      29.92R
JACKSONVILLE*  CLOUDY    82  69  66 CALM      29.86F HX  85
PITTSFIELD*    CLOUDY    82  69  65 CALM      29.88S HX  85
$$

ILZ028>032-037-038-041>044-048-051>054-059>061-012200-
CENTRAL ILLINOIS

CITY           SKY/WX    TMP DP  RH WIND       PRES   REMARKS
PONTIAC        CLOUDY    72  64  75 NE8       29.93S
BLOOMINGTON    PTSUNNY   76  66  71 E10       29.92F
DECATUR        CLOUDY    77  68  73 NE7       29.88F
PEORIA         PTSUNNY   77  64  64 NE8       29.91R
LACON*         PTSUNNY   72  62  71 NE7       29.92R
LINCOLN*       MOSUNNY   78  66  68 E8        29.89S HX  80
SPRINGFIELD    HVY RAIN  76  71  85 NE7       29.87F
TAYLORVILLE    PTSUNNY   79  68  69 W3        29.86F HX  81
$$

ILZ033-039-045-046-055>057-062-063-012200-
EAST-CENTRAL ILLINOIS

CITY           SKY/WX    TMP DP  RH WIND       PRES   REMARKS
CHAMPAIGN      MOSUNNY   76  66  71 E7        29.90F
DANVILLE*      PTSUNNY   73  65  77 E5        29.89F
RANTOUL*       PTSUNNY   76  66  71 E5        29.91S
MATTOON        PTSUNNY   79  70  74 NE10      29.87F HX  82
PARIS*         SUNNY     76  68  77 NE6       29.90S
$$

ILZ079-100>102-012200-
SOUTHWEST ILLINOIS

CITY           SKY/WX    TMP DP  RH WIND       PRES   REMARKS
ALTON          MOSUNNY   81  75  83 W6        29.87F HX  86
BELLEVILLE     MOSUNNY   84  72  66 NW7       29.86S HX  89
CAHOKIA*       PTSUNNY   85  68  56 VRB7      29.86S HX  88
SPARTA*        MOSUNNY   82  69  62 CALM      29.88S HX  85
$$

ILZ064>066-069>071-074>076-080>082-084>086-088>090-092>094-012200-
SOUTH-CENTRAL ILLINOIS

CITY           SKY/WX    TMP DP  RH WIND       PRES   REMARKS
CARBONDALE     PTSUNNY   81  68  64 SW8       29.88R HX  84
CAIRO*         MOSUNNY   82  68  62 W8        29.90R HX  85
EFFINGHAM*     MOSUNNY   82  64  54 SW5       29.88F HX  84
MARION         PTSUNNY   82  70  65 W6        29.90R HX  86
MT. VERNON     MOSUNNY   82  66  57 W5        29.87F HX  85
CENTRALIA*     MOSUNNY   82  66  59 CALM      29.87S HX  84
SALEM*         PTSUNNY   84  69  61 N5        29.87F HX  88
METROPOLIS*    MOSUNNY   82  70  66 SW8       29.91R HX  86
$$

ILZ067-068-072-073-078-083-087-091-012200-
SOUTHEAST ILLINOIS

CITY           SKY/WX    TMP DP  RH WIND       PRES   REMARKS
LAWRENCEVILLE  LGT RAIN  79  70  74 W6        29.87F HX  82
FLORA*         MOSUNNY   81  68  65 CALM      29.87F HX  84
FAIRFIELD*     MOSUNNY   81  69  66 N5        29.85F HX  85
HARRISBURG*    MOSUNNY   81  67  63 W6        29.89R HX  84
ROBINSON*      PTSUNNY   79  69  72 SE5       29.88S HX  82
CARMI*         MOSUNNY   82  63  51 N5        29.86F HX  83
$$

ABBREVIATIONS USED IN REMARKS
   TC - TEMPERATURE IN CELSIUS
  WCI - WIND CHILL INDEX
   HX - HEAT INDEX
  VSB - VISIBILITY
$$



USA.gov is the U.S. government's official web portal to all federal, state and local government web resources and services.